TimeCST,TemperatureF,Dew PointF,Humidity,Sea Level PressureIn,VisibilityMPH,Wind Direction,Wind SpeedMPH,Gust SpeedMPH,PrecipitationIn,Events,Conditions,WindDirDegrees,DateUTC
12:58 AM,51.3,30.0,44,30.20,10.0,NNE,8.1,-,N/A,,Clear,20,2014-01-17 06:58:00
1:58 AM,47.1,30.0,51,30.21,10.0,NNW,3.5,-,N/A,,Clear,330,2014-01-17 07:58:00
2:58 AM,43.2,30.7,62,30.22,10.0,NNW,8.1,-,N/A,,Clear,330,2014-01-17 08:58:00
3:58 AM,40.5,30.7,68,30.23,10.0,NNW,5.8,-,N/A,,Clear,330,2014-01-17 09:58:00
4:58 AM,38.3,29.8,72,30.24,10.0,North,6.9,-,N/A,,Clear,10,2014-01-17 10:58:00
5:58 AM,48.7,21.0,34,30.26,10.0,NNE,8.1,-,N/A,,Clear,20,2014-01-17 11:58:00
6:58 AM,48.2,16.2,28,30.28,10.0,North,11.5,-,N/A,,Clear,10,2014-01-17 12:58:00
7:58 AM,43.7,18.3,36,30.30,10.0,North,10.4,-,N/A,,Clear,10,2014-01-17 13:58:00
8:58 AM,50.4,18.1,28,30.34,10.0,North,9.2,-,N/A,,Clear,360,2014-01-17 14:58:00
9:58 AM,56.3,14.9,20,30.35,10.0,North,16.1,-,N/A,,Clear,10,2014-01-17 15:58:00
10:58 AM,60.1,14.0,16,30.35,10.0,NNE,13.8,-,N/A,,Clear,30,2014-01-17 16:58:00
11:58 AM,62.1,14.2,15,30.33,10.0,NNE,12.7,20.7,N/A,,Clear,30,2014-01-17 17:58:00
12:58 PM,63.9,14.7,15,30.30,10.0,NNE,11.5,-,N/A,,Clear,30,2014-01-17 18:58:00
1:58 PM,64.2,13.3,14,30.27,10.0,NE,8.1,-,N/A,,Clear,40,2014-01-17 19:58:00
2:58 PM,65.1,16.0,15,30.27,10.0,NE,8.1,-,N/A,,Clear,40,2014-01-17 20:58:00
3:58 PM,63.9,15.6,15,30.26,10.0,ENE,11.5,-,N/A,,Clear,70,2014-01-17 21:58:00
4:58 PM,61.3,15.3,17,30.27,10.0,East,9.2,-,N/A,,Clear,80,2014-01-17 22:58:00
5:58 PM,55.0,18.3,24,30.28,10.0,East,4.6,-,N/A,,Clear,80,2014-01-17 23:58:00
6:58 PM,50.9,18.1,27,30.29,10.0,ENE,5.8,-,N/A,,Clear,70,2014-01-18 00:58:00
7:58 PM,47.8,18.7,31,30.29,10.0,ENE,3.5,-,N/A,,Clear,60,2014-01-18 01:58:00
8:58 PM,45.9,20.5,37,30.30,10.0,ENE,3.5,-,N/A,,Clear,60,2014-01-18 02:58:00
9:58 PM,45.7,19.8,36,30.29,10.0,NE,2.3,-,N/A,,Clear,50,2014-01-18 03:58:00
10:58 PM,39.2,24.1,55,30.29,10.0,North,4.6,-,N/A,,Clear,360,2014-01-18 04:58:00
11:58 PM,37.4,25.0,61,30.27,10.0,NNW,2.3,-,N/A,,Clear,330,2014-01-18 05:58:00